[[{"header":{"parameterUnit":"m.s-1","parameterCategory":1,"la1":30.2991,"la2":30.254,"lo1":-89.0895,"lo2":-89.0444,"dy":0.0017,"dx":0.0017,"nx":28,"ny":28,"refTime":"2024-10-12T03:00:00:Z","depth":0,"parameterNumber":2,"parameterNumberName":"U-component_of_WINDS"},"data":[0,0,0,0,0,0,0,0,0,0,0,0,0,0,0,0,0,0,0,0,0,0,0,0,0,0,0,0,0,0,0,0,0,0,0,0,0,0,0,0,0,0,0,0,0,0,0,0,0,0,0,0,0,0,0,0,0,0,0.3814,0.3814,0,0.3839,0.3839,0.3839,0.3857,0.3857,0.3857,0.3857,0.3881,0.3881,0.3882,0,0,0,0,0,0,0,0,0,0,0,0,0,0.3778,0.3779,0.3814,0.3814,0.3814,0.3839,0.3839,0.3839,0.3857,0.3857,0.3857,0.3857,0.3881,0.3881,0.3882,0,0,0,0,0,0,0,0,0,0,0,0,0,0.3797,0.3779,0.3814,0.3826,0.3827,0.3838,0.3839,0.3839,0.3857,0.3857,0.3857,0.3857,0.388,0.3881,0.3882,0.3882,0,0,0.3884,0.3884,0,0,0,0,0,0,0,0,0.3796,0.3799,0.3824,0.3825,0.3827,0.3845,0.3835,0.3854,0.3857,0.3845,0.3857,0.3857,0.3868,0.387,0.3874,0.3883,0.3884,0.3884,0.3885,0.3885,0.3885,0,0,0,0,0,0,0,0.3795,0.3798,0.3823,0.3824,0.3826,0.3829,0.3832,0.3839,0.3855,0.3846,0.3848,0.3851,0.3869,0.3874,0.3875,0.3885,0.3884,0.3885,0.3885,0.3886,0.3893,0.3893,0,0,0,0,0,0,0.3792,0.3796,0.3823,0.3824,0.3812,0.383,0.3833,0.3839,0.3855,0.3858,0.385,0.3851,0.3872,0.3874,0.3876,0.3876,0.3885,0.3886,0.3886,0.3894,0.3893,0.3893,0,0,0,0,0,0,0.3791,0.3794,0.3822,0.3811,0.3814,0.383,0.3836,0.3839,0.3843,0.3858,0.3861,0.3852,0.3872,0.3875,0.388,0.3877,0.3886,0.3887,0.3894,0.3893,0.3893,0.3878,0,0,0,0,0,0,0.379,0.3794,0.3795,0.3811,0.3815,0.3826,0.3836,0.3839,0.3845,0.3846,0.3861,0.3863,0.3873,0.3879,0.3881,0.3879,0.3887,0.3894,0.3894,0.3893,0.3879,0.3877,0.3876,0,0,0,0,0,0.3789,0.379,0.3795,0.3798,0.3817,0.3826,0.3829,0.384,0.3845,0.3845,0.3855,0.3863,0.3877,0.3879,0.3882,0.388,0.3894,0.3894,0.3893,0.3879,0.3877,0.3876,0,0,0,0,0,0,0.3773,0.3792,0.3798,0.3804,0.3813,0.3829,0.3831,0.3838,0.3846,0.3847,0.386,0.3863,0.3867,0.3874,0.3876,0.388,0.3887,0.3887,0.3875,0.3874,0.3872,0.387,0.3888,0,0,0,0,0,0.377,0.3777,0.3793,0.3797,0.3801,0.3815,0.382,0.3828,0.3838,0.3841,0.3851,0.386,0.3866,0.387,0.3877,0.388,0.3882,0.3879,0.3878,0.3876,0.3876,0.3876,0.3875,0.3891,0.3891,0.3891,0,0,0.3765,0.3776,0.3779,0.3794,0.3802,0.3808,0.3818,0.3824,0.3828,0.3842,0.3848,0.3855,0.3866,0.3869,0.3871,0.3875,0.3872,0.3876,0.3875,0.3875,0.3875,0.3874,0.3872,0.3891,0.3891,0.3891,0,0,0.3758,0.3767,0.3771,0.3778,0.3791,0.38,0.38,0.3815,0.382,0.3826,0.3836,0.384,0.3852,0.3858,0.3863,0.3856,0.3864,0.3858,0.385,0.385,0.3849,0.3848,0.3844,0.3843,0.3858,0.3858,0.3858,0,0.3749,0.3759,0.3772,0.3777,0.3782,0.3795,0.3798,0.3804,0.3818,0.3821,0.3825,0.3838,0.3847,0.3851,0.3849,0.3853,0.3853,0.3857,0.3848,0.3847,0.3846,0.3843,0.3842,0.3857,0.3857,0.3857,0.3857,0,0.3747,0.3754,0.3755,0.3768,0.3773,0.3777,0.3789,0.3793,0.38,0.3808,0.3813,0.3823,0.3831,0.3833,0.384,0.3838,0.384,0.3846,0.3853,0.3844,0.3841,0.384,0.3856,0.3856,0.3856,0.3857,0,0,0.3732,0.375,0.3751,0.3756,0.3769,0.3774,0.3778,0.3786,0.3789,0.3797,0.38,0.3808,0.3813,0.3819,0.3827,0.3827,0.3819,0.3833,0.3833,0.3829,0.3816,0.381,0.3809,0.3824,0.3824,0.3824,0.3814,0,0.3726,0.3735,0.3745,0.3749,0.3754,0.3766,0.3769,0.3776,0.3783,0.3788,0.3796,0.3801,0.3808,0.3811,0.3812,0.382,0.3816,0.3821,0.3825,0.3825,0.3822,0.3808,0.3803,0.3793,0.3813,0.3813,0.3813,0,0.3721,0.3729,0.3733,0.3745,0.3747,0.375,0.3758,0.3762,0.3771,0.3776,0.3781,0.3789,0.3792,0.3798,0.3802,0.3805,0.3807,0.3811,0.3811,0.3811,0.3818,0.3807,0.3791,0.3789,0.3812,0.3812,0.3812,0,0.3709,0.372,0.3724,0.3728,0.3741,0.3743,0.3748,0.3757,0.3761,0.3767,0.3769,0.3776,0.3779,0.3784,0.3793,0.3797,0.3795,0.3803,0.3798,0.3798,0.3797,0.3797,0.3781,0.38,0.38,0.38,0.38,0,0.3701,0.3703,0.3718,0.372,0.3722,0.3733,0.3735,0.3741,0.3749,0.3751,0.3762,0.3764,0.3776,0.3779,0.3786,0.3787,0.3789,0.3792,0.3794,0.3791,0.379,0.3792,0.3793,0.3799,0.3799,0.38,0.38,0,0.3688,0.3698,0.3702,0.3714,0.3717,0.3718,0.3728,0.373,0.3737,0.374,0.3741,0.3752,0.3757,0.3766,0.3773,0.3777,0.3776,0.378,0.3774,0.3775,0.3769,0.3769,0.3753,0.3751,0.3772,0.3772,0.3772,0,0.3682,0.3684,0.3696,0.3698,0.3703,0.3708,0.3711,0.3722,0.3725,0.3734,0.3734,0.3739,0.3744,0.3749,0.3757,0.3762,0.3765,0.3759,0.3766,0.3763,0.3764,0.3764,0.3763,0.3758,0.3757,0.3757,0.3757,0,0.3671,0.3675,0.368,0.3686,0.369,0.3696,0.3702,0.3703,0.3715,0.3718,0.3722,0.3725,0.3732,0.3736,0.3741,0.3746,0.3753,0.3755,0.3754,0.3751,0.3746,0.3747,0.3769,0.3755,0.3755,0.3755,0.3756,0.3756,0.3661,0.3662,0.367,0.3675,0.368,0.3685,0.3687,0.3693,0.3697,0.3703,0.3709,0.3712,0.3719,0.3727,0.3731,0.3733,0.3737,0.3736,0.3735,0.3735,0.3733,0.3746,0.3734,0.3734,0.3734,0.3735,0.3735,0,0.3649,0.3654,0.3659,0.3666,0.3669,0.3675,0.3682,0.3684,0.3687,0.3692,0.3696,0.37,0.3703,0.3711,0.3715,0.3715,0.3718,0.3716,0.3715,0.3716,0.373,0.373,0.3713,0.3713,0.3713,0.3713,0.3713,0.3713,0.3644,0.3646,0.3651,0.3655,0.366,0.3663,0.3666,0.367,0.3674,0.3678,0.3681,0.3686,0.3692,0.3696,0.3699,0.3701,0.3701,0.3698,0.3701,0.3713,0.3715,0.3717,0.3717,0.3698,0.3698,0.3687,0.3686,0.3686]},{"header":{"parameterUnit":"m.s-1","parameterCategory":1,"la1":30.2991,"la2":30.254,"lo1":-89.0895,"lo2":-89.0444,"dy":0.0017,"dx":0.0017,"nx":28,"ny":28,"refTime":"2024-10-12T03:00:00:Z","depth":0,"parameterNumber":3,"parameterNumberName":"V-component_of_WINDS"},"data":[0,0,0,0,0,0,0,0,0,0,0,0,0,0,0,0,0,0,0,0,0,0,0,0,0,0,0,0,0,0,0,0,0,0,0,0,0,0,0,0,0,0,0,0,0,0,0,0,0,0,0,0,0,0,0,0,0,0,2.2832,2.2831,0,2.2794,2.2793,2.2793,2.2742,2.2741,2.274,2.2739,2.27,2.27,2.27,0,0,0,0,0,0,0,0,0,0,0,0,0,2.2858,2.2858,2.2832,2.2831,2.2831,2.2794,2.2793,2.2793,2.2742,2.2741,2.274,2.2739,2.27,2.27,2.27,0,0,0,0,0,0,0,0,0,0,0,0,0,2.2836,2.2858,2.2832,2.2801,2.2798,2.2794,2.2793,2.2793,2.2742,2.2741,2.274,2.2739,2.2701,2.27,2.27,2.2723,0,0,2.2699,2.2699,0,0,0,0,0,0,0,0,2.2838,2.2835,2.2806,2.2803,2.2799,2.2771,2.2788,2.2769,2.2743,2.2763,2.2739,2.2738,2.2725,2.2723,2.2718,2.2721,2.2719,2.2699,2.2698,2.2698,2.2698,0,0,0,0,0,0,0,2.2839,2.2837,2.2817,2.2806,2.2802,2.2788,2.2784,2.2785,2.2752,2.2761,2.2758,2.2754,2.2723,2.2719,2.2717,2.2719,2.2699,2.2698,2.2698,2.2698,2.2736,2.2737,0,0,0,0,0,0,2.2846,2.2838,2.2818,2.2815,2.2816,2.2789,2.2784,2.2782,2.2752,2.2746,2.2755,2.2752,2.272,2.2717,2.2715,2.2738,2.2698,2.2698,2.2698,2.2735,2.2736,2.2738,0,0,0,0,0,0,2.2846,2.2844,2.2819,2.2826,2.2822,2.279,2.2788,2.2782,2.2777,2.2747,2.2741,2.2757,2.2719,2.2716,2.2721,2.2736,2.2698,2.2697,2.2733,2.2735,2.2737,2.2786,0,0,0,0,0,0,2.2847,2.2845,2.2854,2.2826,2.2822,2.2826,2.2789,2.2782,2.2777,2.2772,2.2747,2.2741,2.2718,2.2722,2.272,2.2735,2.2697,2.2732,2.2734,2.2736,2.2783,2.2789,2.2795,0,0,0,0,0,2.2848,2.2869,2.2854,2.2852,2.2832,2.2827,2.2824,2.2797,2.2778,2.2786,2.2766,2.2742,2.2735,2.2723,2.2721,2.2736,2.2731,2.2734,2.2736,2.278,2.2788,2.2795,0,0,0,0,0,0,2.29,2.2865,2.2848,2.2861,2.2847,2.2819,2.2828,2.2806,2.2797,2.2793,2.2759,2.2754,2.2763,2.275,2.2737,2.2755,2.2729,2.2732,2.2763,2.277,2.2776,2.2778,2.2697,0,0,0,0,0,2.2912,2.2912,2.2882,2.2896,2.289,2.286,2.2857,2.2837,2.2821,2.2815,2.2796,2.2781,2.2775,2.2772,2.2766,2.2781,2.2774,2.279,2.2796,2.2801,2.2803,2.2808,2.2814,2.2747,2.2747,2.2747,0,0,2.2939,2.292,2.2922,2.2906,2.2893,2.2891,2.2856,2.2857,2.2855,2.2815,2.2818,2.2804,2.2785,2.2795,2.2798,2.2784,2.2821,2.2805,2.2809,2.2808,2.2812,2.2818,2.2824,2.2749,2.2748,2.2748,0,0,2.2986,2.2972,2.2982,2.2969,2.2949,2.2929,2.2932,2.2906,2.2894,2.2897,2.2866,2.2864,2.2856,2.2843,2.2835,2.2876,2.2852,2.2875,2.2906,2.2911,2.2916,2.292,2.2933,2.2938,2.2877,2.2877,2.2878,0,2.3021,2.3018,2.2989,2.2991,2.2984,2.2948,2.2956,2.2946,2.2925,2.2921,2.2906,2.2893,2.2878,2.2883,2.2893,2.2889,2.2889,2.2877,2.2918,2.2922,2.2926,2.2937,2.2942,2.288,2.288,2.288,2.2879,0,2.3061,2.306,2.307,2.305,2.3045,2.305,2.3021,2.3019,2.2999,2.298,2.2982,2.2963,2.295,2.295,2.2932,2.2952,2.2944,2.2924,2.2897,2.2935,2.2945,2.295,2.2884,2.2883,2.2882,2.2882,0,0,2.3139,2.3103,2.3106,2.3096,2.3072,2.307,2.3073,2.3061,2.3058,2.3046,2.3046,2.3039,2.302,2.3011,2.299,2.2995,2.3026,2.2974,2.2973,2.2982,2.3045,2.3059,2.3064,2.301,2.3011,2.3012,2.3045,0,2.318,2.3183,2.3157,2.3167,2.3164,2.3129,2.3132,2.3116,2.3099,2.3094,2.3074,2.3069,2.3045,2.3039,2.3042,2.3021,2.3037,2.3019,2.3009,2.3009,2.3013,2.307,2.3085,2.3118,2.3049,2.305,2.3051,0,2.3228,2.3217,2.3227,2.32,2.3198,2.3201,2.3186,2.3182,2.3163,2.315,2.314,2.3116,2.3116,2.3091,2.309,2.3077,2.3072,2.3061,2.3062,2.3058,2.3031,2.3066,2.3128,2.3132,2.3057,2.3056,2.3056,0,2.3281,2.3269,2.3272,2.3265,2.3235,2.3237,2.3224,2.3204,2.3198,2.3185,2.3181,2.3168,2.3161,2.3152,2.3124,2.3109,2.3125,2.3099,2.3113,2.3113,2.3117,2.3116,2.3176,2.3116,2.3116,2.3116,2.3116,0,2.3328,2.3335,2.3295,2.3298,2.3304,2.3273,2.328,2.3263,2.3246,2.3243,2.3213,2.3211,2.3176,2.317,2.3148,2.3149,2.3147,2.3135,2.3129,2.3136,2.3138,2.3131,2.3127,2.3117,2.3117,2.3117,2.3117,0,2.3388,2.3362,2.3363,2.3334,2.3327,2.3333,2.3307,2.3307,2.3288,2.3285,2.3282,2.3251,2.3242,2.3214,2.3199,2.3184,2.319,2.318,2.3197,2.3192,2.3207,2.3205,2.3263,2.3268,2.3207,2.3208,2.3209,0,2.3419,2.3423,2.3394,2.339,2.3379,2.3374,2.3367,2.3336,2.333,2.3308,2.3311,2.3299,2.3288,2.3275,2.3251,2.3238,2.3226,2.3247,2.3224,2.3231,2.3224,2.3223,2.3222,2.3252,2.3253,2.3253,2.3254,0,2.3476,2.3463,2.3454,2.3441,2.3434,2.3422,2.3408,2.3406,2.3372,2.3366,2.3357,2.3348,2.3331,2.332,2.3303,2.3289,2.3265,2.3262,2.3264,2.3271,2.3279,2.3273,2.3208,2.326,2.3259,2.3259,2.3259,2.3258,2.3521,2.3522,2.3502,2.3493,2.3479,2.3467,2.3465,2.3445,2.3436,2.342,2.3403,2.3394,2.3374,2.3348,2.3336,2.3328,2.3316,2.3319,2.332,2.3321,2.3324,2.3282,2.3325,2.3325,2.3325,2.3325,2.3325,0,2.3574,2.3559,2.3551,2.3533,2.3525,2.3504,2.3488,2.3482,2.3476,2.3459,2.3449,2.3436,2.3425,2.3399,2.3384,2.3383,2.3372,2.338,2.3379,2.3376,2.3337,2.3335,2.3389,2.3389,2.3389,2.3389,2.3389,2.3389,2.3601,2.3602,2.3586,2.3579,2.3564,2.3555,2.3547,2.3535,2.3521,2.3509,2.3499,2.3483,2.3461,2.3445,2.3432,2.3425,2.342,2.3432,2.3421,2.3385,2.3379,2.3373,2.3371,2.3432,2.3432,2.346,2.346,2.346]}]]